Waukegan, IL

4:48 AM CST on December 04, 2016 (GMT -0600)
Waukegan Regional

Weather History for KUGN - March, 2014

Change the Weather History Date:

Saturday, March 1, 2014

  Actual Average Record
Temperature  
Mean Temperature 18 °F -  
Max Temperature 27 °F 39 °F 56 °F (2000)
Min Temperature 9 °F 22 °F 3 °F (2015)
Degree Days  
Heating Degree Days 47 35  
Month to date heating degree days 47 35  
Since 1 July heating degree days 5916 4981  
Cooling Degree Days 0 0  
Month to date cooling degree days 0 0  
Year to date cooling degree days 0 0  
Moisture  
Dew Point 11 °F    
Average Humidity 75    
Maximum Humidity 96    
Minimum Humidity 54    
Precipitation  
Precipitation 0.00 in 0.06 in 0.75 in (2007)
Month to date precipitation 0.06  
Year to date precipitation 2.02 3.11  
Sea Level Pressure  
Sea Level Pressure 30.21 in    
Wind  
Wind Speed 7 mph (NW)    
Max Wind Speed 13 mph    
Max Gust Speed 20 mph    
Visibility 3 miles    
Events Fog , Snow    
T = Trace of Precipitation, MM = Missing Value Source: NWS Daily Summary

Daily Weather History Graph

Daily Weather History Graph

Search for Another Location

Airport or City:

Trip Planner

Search our weather history database for the weather conditions in past years. The results will help you decide how hot, cold, wet, or windy it might be!

Date:

Astronomy

Mar. 01, 2014 Rise Set
Actual Time 6:26 AM CST 5:41 PM CST
Civil Twilight 5:58 AM CST 6:09 PM CST
Nautical Twilight 5:26 AM CST 6:42 PM CST
Astronomical Twilight 4:53 AM CST 7:14 PM CST
Moon 6:19 AM CST (3/1) 6:30 PM CST (3/1)
Length of Visible Light 12h 10m
Length of Day
11h 14m
New Moon, 0% of the Moon is Illuminated
Mar 1
New Moon
Mar 8
First Quarter
Mar 16
Full
Mar 23
Last Quarter
Mar 30
New

Hourly Weather History & Observations

Time (CST) Temp. Windchill Dew Point Humidity Pressure Visibility Wind Dir Wind Speed Gust Speed Precip Events Conditions
12:41 AM 24.8 °F - 19.4 °F 80% 30.01 in 2.0 mi Calm Calm - 0.00 in Snow Light Snow
12:52 AM 25.0 °F 20.7 °F 19.0 °F 78% 30.06 in 2.0 mi West 3.5 mph - 0.00 in Snow Light Snow
1:24 AM 24.8 °F 20.5 °F 19.4 °F 80% 30.01 in 1.2 mi WNW 3.5 mph - 0.00 in Snow Light Snow
1:52 AM 23.0 °F - 21.0 °F 92% 30.07 in 1.5 mi Calm Calm - 0.00 in Snow Light Snow
2:06 AM 23.0 °F - 21.2 °F 93% 30.01 in 0.8 mi Calm Calm - 0.00 in Snow Light Snow
2:17 AM 23.0 °F 18.4 °F 21.2 °F 93% 30.01 in 0.8 mi WNW 3.5 mph - 0.00 in Snow Light Snow
2:39 AM 23.0 °F 18.4 °F 21.2 °F 93% 30.00 in 1.0 mi NW 3.5 mph - 0.00 in Snow Light Snow
2:48 AM 23.0 °F 18.4 °F 21.2 °F 93% 30.01 in 0.8 mi Variable 3.5 mph - 0.00 in Snow Light Snow
2:52 AM 23.0 °F 18.4 °F 21.0 °F 92% 30.06 in 0.8 mi NW 3.5 mph - 0.00 in Snow Light Snow
3:09 AM 23.0 °F 18.4 °F 21.2 °F 93% 30.01 in 1.0 mi NW 3.5 mph - 0.00 in Snow Light Snow
3:17 AM 23.0 °F 17.0 °F 21.2 °F 93% 30.02 in 0.8 mi NNW 4.6 mph - 0.00 in Snow Light Snow
3:20 AM 23.0 °F 17.0 °F 21.2 °F 93% 30.02 in 1.0 mi Variable 4.6 mph - 0.00 in Snow Light Snow
3:52 AM 21.9 °F 12.5 °F 19.9 °F 92% 30.09 in 1.2 mi NNW 8.1 mph - 0.00 in Snow Light Snow
4:10 AM 21.2 °F 13.6 °F 19.4 °F 93% 30.04 in 2.5 mi NNW 5.8 mph - 0.00 in Snow Light Snow
4:20 AM 21.2 °F 11.7 °F 19.4 °F 93% 30.04 in 1.8 mi NNW 8.1 mph - 0.00 in Snow Light Snow
4:29 AM 21.2 °F 10.1 °F 19.4 °F 93% 30.04 in 2.5 mi NNW 10.4 mph 17.3 mph 0.00 in Snow Light Snow
4:45 AM 21.2 °F 11.7 °F 17.6 °F 86% 30.06 in 3.0 mi NNW 8.1 mph - 0.00 in Snow Light Snow
4:52 AM 19.9 °F 8.6 °F 17.1 °F 89% 30.12 in 5.0 mi NNW 10.4 mph 18.4 mph 0.00 in Snow Light Snow
5:09 AM 19.4 °F 7.9 °F 15.8 °F 86% 30.08 in 7.0 mi NW 10.4 mph 17.3 mph 0.00 in   Overcast
5:52 AM 19.9 °F 11.1 °F 15.1 °F 81% 30.15 in 7.0 mi NNW 6.9 mph - 0.00 in   Overcast
6:52 AM 19.0 °F 11.1 °F 12.9 °F 77% 30.17 in 7.0 mi NNW 5.8 mph - N/A   Overcast
7:41 AM 17.6 °F 8.2 °F 10.4 °F 73% 30.17 in 8.0 mi Variable 6.9 mph 17.3 mph N/A   Overcast
7:52 AM 17.1 °F 8.7 °F 10.0 °F 74% 30.23 in 8.0 mi NW 5.8 mph - N/A   Overcast
8:52 AM 16.0 °F 4.4 °F 7.0 °F 68% 30.25 in 10.0 mi NNW 9.2 mph - N/A   Overcast
9:52 AM 17.1 °F 5.8 °F 6.1 °F 62% 30.27 in 10.0 mi NW 9.2 mph - N/A   Overcast
10:52 AM 18.0 °F 7.7 °F 3.9 °F 54% 30.27 in 10.0 mi NNW 8.1 mph - N/A   Mostly Cloudy
11:52 AM 16.0 °F 7.4 °F 5.0 °F 62% 30.28 in 10.0 mi North 5.8 mph - N/A   Overcast
12:52 PM 18.0 °F 8.7 °F 5.0 °F 57% 30.29 in 10.0 mi NNW 6.9 mph - N/A   Overcast
1:26 PM 15.8 °F 6.1 °F 6.8 °F 68% 30.21 in 2.5 mi North 6.9 mph - 0.00 in Snow Light Snow
1:39 PM 15.8 °F 7.2 °F 8.6 °F 73% 30.21 in 1.8 mi North 5.8 mph - 0.00 in Snow Light Snow
1:49 PM 15.8 °F 6.1 °F 8.6 °F 73% 30.22 in 1.2 mi NNW 6.9 mph - 0.00 in Snow Light Snow
1:52 PM 15.1 °F 7.7 °F 9.0 °F 77% 30.29 in 1.0 mi NNW 4.6 mph - 0.00 in Snow Light Snow
2:22 PM 15.8 °F 7.2 °F 10.4 °F 79% 30.24 in 0.5 mi NNW 5.8 mph - 0.00 in Snow Snow
2:36 PM 14.0 °F 5.1 °F 10.4 °F 86% 30.25 in 0.5 mi NW 5.8 mph - 0.00 in Fog , Snow Snow
2:49 PM 14.0 °F 1.2 °F 10.4 °F 86% 30.25 in 0.2 mi NNW 10.4 mph - 0.00 in Fog , Snow Snow
2:52 PM 14.0 °F 2.9 °F 10.0 °F 84% 30.32 in 0.2 mi NNW 8.1 mph - 0.00 in Fog , Snow Heavy Snow
3:12 PM 14.0 °F 5.1 °F 10.4 °F 86% 30.24 in 0.5 mi NW 5.8 mph - 0.00 in Fog , Snow Snow
3:22 PM 14.0 °F 3.9 °F 8.6 °F 79% 30.24 in 1.0 mi NNW 6.9 mph - 0.00 in Snow Light Snow
3:52 PM 14.0 °F 3.9 °F 8.1 °F 77% 30.34 in 0.8 mi NW 6.9 mph - 0.00 in Snow Light Snow
4:01 PM 12.2 °F 1.7 °F 8.6 °F 85% 30.27 in 1.0 mi NW 6.9 mph - 0.00 in Snow Light Snow
4:52 PM 12.0 °F 0.5 °F 7.0 °F 80% 30.33 in 1.2 mi NNW 8.1 mph - 0.00 in Snow Light Snow
5:29 PM 12.2 °F 4.3 °F 8.6 °F 85% 30.29 in 0.8 mi NNW 4.6 mph - 0.00 in Snow Light Snow
5:37 PM 10.4 °F -0.4 °F 8.6 °F 92% 30.28 in 2.0 mi NW 6.9 mph - 0.00 in Snow Light Snow
5:52 PM 10.9 °F 1.4 °F 7.0 °F 84% 30.35 in 1.2 mi NW 5.8 mph - 0.00 in Snow Light Snow
6:02 PM 10.4 °F 0.8 °F 6.8 °F 85% 30.28 in 0.8 mi NNW 5.8 mph - 0.00 in Snow Light Snow
6:16 PM 10.4 °F -0.4 °F 8.6 °F 92% 30.29 in 0.5 mi North 6.9 mph - 0.00 in Fog , Snow Snow
6:52 PM 10.0 °F -0.9 °F 7.0 °F 87% 30.38 in 0.5 mi NNW 6.9 mph - 0.00 in Fog , Snow Snow
7:28 PM 10.4 °F -1.5 °F 6.8 °F 85% 30.30 in 0.8 mi NNW 8.1 mph - 0.00 in Snow Light Snow
7:52 PM 10.0 °F 0.4 °F 7.0 °F 87% 30.37 in 0.8 mi NNW 5.8 mph - 0.00 in Snow Light Snow
8:01 PM 10.4 °F 2.2 °F 6.8 °F 85% 30.31 in 1.2 mi NW 4.6 mph - 0.00 in Snow Light Snow
8:17 PM 10.4 °F 4.0 °F 6.8 °F 85% 30.31 in 1.5 mi Variable 3.5 mph - 0.00 in Snow Light Snow
8:35 PM 10.4 °F 0.8 °F 6.8 °F 85% 30.34 in 2.0 mi NW 5.8 mph - 0.00 in Snow Light Snow
8:43 PM 10.4 °F 2.2 °F 6.8 °F 85% 30.32 in 2.0 mi NW 4.6 mph - 0.00 in Snow Light Snow
8:52 PM 10.0 °F 1.8 °F 6.1 °F 84% 30.39 in 1.8 mi NW 4.6 mph - 0.00 in Snow Light Snow
9:04 PM 10.4 °F -0.4 °F 6.8 °F 85% 30.32 in 3.0 mi NW 6.9 mph - 0.00 in Snow Light Snow
9:13 PM 8.6 °F -2.6 °F 5.0 °F 85% 30.32 in 8.0 mi NW 6.9 mph - 0.00 in   Overcast
9:52 PM 9.0 °F -4.2 °F 3.9 °F 80% 30.40 in 8.0 mi NNW 9.2 mph - 0.00 in   Overcast
10:15 PM 8.6 °F -4.7 °F 3.2 °F 79% 30.32 in 2.0 mi NNW 9.2 mph - 0.00 in Snow Light Snow
10:27 PM 8.6 °F -2.6 °F 3.2 °F 79% 30.32 in 5.0 mi NW 6.9 mph - 0.00 in Snow Light Snow
10:52 PM 9.0 °F -4.2 °F 1.9 °F 73% 30.39 in 5.0 mi NNW 9.2 mph - 0.00 in   Haze
11:52 PM 9.0 °F -2.2 °F 3.9 °F 80% 30.39 in 6.0 mi NW 6.9 mph - 0.00 in   Haze